Eagle River, WI

5:55 AM CDT on October 17, 2017 (GMT -0500)
Eagle River Union

Weather History for KEGV - October, 2013

Change the Weather History Date:

Thursday, October 31, 2013

  Actual Average Record
Temperature  
Mean Temperature 47 °F -  
Max Temperature 51 °F 44 °F 66 °F (2000)
Min Temperature 43 °F 30 °F 18 °F (2014)
Degree Days  
Heating Degree Days 18    
Moisture  
Dew Point 48 °F    
Average Humidity 100    
Maximum Humidity 100    
Minimum Humidity 99    
Precipitation  
Precipitation 0.15 in - - ()
Sea Level Pressure  
Sea Level Pressure 29.41 in    
Wind  
Wind Speed 2 mph (North)    
Max Wind Speed 13 mph    
Max Gust Speed 17 mph    
Visibility 4 miles    
Events Fog , Rain    
Averages and records for this station are not official NWS values.
T = Trace of Precipitation, MM = Missing Value Source: NWS Daily Summary

Daily Weather History Graph

Daily Weather History Graph

Search for Another Location

Airport or City:

Trip Planner

Search our weather history database for the weather conditions in past years. The results will help you decide how hot, cold, wet, or windy it might be!

Date:

Astronomy

Oct. 31, 2013 Rise Set
Actual Time 7:36 AM CDT 5:44 PM CDT
Civil Twilight 7:05 AM CDT 6:15 PM CDT
Nautical Twilight 6:30 AM CDT 6:50 PM CDT
Astronomical Twilight 5:55 AM CDT 7:25 PM CDT
Moon 4:16 AM CDT (10/31) 4:09 PM CDT (10/31)
Length of Visible Light 11h 10m
Length of Day
10h 07m
Waning Crescent, 10% of the Moon is Illuminated
Oct 31
Waning Crescent
Nov 3
New
Nov 9
First Quarter
Nov 17
Full
Nov 25
Last Quarter

Hourly Weather History & Observations

Time (CDT) Temp. Windchill Dew Point Humidity Pressure Visibility Wind Dir Wind Speed Gust Speed Precip Events Conditions
12:15 AM 47.3 °F - 47.3 °F 100% 29.70 in 0.5 mi South 5.8 mph - N/A Fog Fog
12:35 AM 47.3 °F - 47.3 °F 100% 29.69 in 0.5 mi Calm Calm - N/A Fog Fog
12:55 AM 47.3 °F - 47.3 °F 100% 29.68 in 0.5 mi Calm Calm - N/A Fog Fog
1:15 AM 47.3 °F - 47.3 °F 100% 29.68 in 0.5 mi Calm Calm - N/A Fog Fog
1:35 AM 47.5 °F - 47.5 °F 100% 29.66 in 0.2 mi Calm Calm - N/A Rain Light Rain
1:55 AM 47.3 °F - 47.3 °F 100% 29.65 in 0.2 mi Calm Calm - N/A   Light Drizzle
2:15 AM 47.3 °F - 47.3 °F 100% 29.64 in 0.2 mi Calm Calm - N/A Fog Fog
2:35 AM 47.5 °F - 47.5 °F 100% 29.64 in 0.5 mi Calm Calm - N/A Fog Fog
2:55 AM 47.7 °F - 47.7 °F 100% 29.62 in 0.5 mi South 3.5 mph - N/A Fog Fog
3:15 AM 47.7 °F - 47.7 °F 100% 29.61 in 0.5 mi Calm Calm - N/A Fog Fog
3:35 AM 47.8 °F - 47.8 °F 100% 29.59 in 0.2 mi Calm Calm - N/A Fog Fog
3:55 AM 47.3 °F - 47.3 °F 100% 29.58 in 0.2 mi Calm Calm - N/A Fog Fog
4:15 AM 47.3 °F - 47.3 °F 100% 29.58 in 0.2 mi Calm Calm - N/A Fog Fog
4:35 AM 47.3 °F - 47.3 °F 100% 29.58 in 0.2 mi Calm Calm - N/A Fog Fog
4:55 AM 47.3 °F - 47.3 °F 100% 29.57 in 0.2 mi SSE 3.5 mph - N/A Fog Fog
5:15 AM 47.7 °F - 47.7 °F 100% 29.56 in 0.2 mi Calm Calm - N/A Fog Fog
5:35 AM 47.5 °F - 47.5 °F 100% 29.56 in 0.2 mi Calm Calm - N/A Fog Fog
5:55 AM 47.5 °F - 47.5 °F 100% 29.55 in 0.5 mi Calm Calm - N/A Fog Fog
6:15 AM 47.7 °F - 47.7 °F 100% 29.54 in 0.5 mi Calm Calm - N/A Fog Fog
6:35 AM 47.5 °F - 47.5 °F 100% 29.54 in 0.5 mi Calm Calm - N/A Rain Light Rain
6:55 AM 47.3 °F - 47.3 °F 100% 29.53 in 0.5 mi Calm Calm - N/A Fog Fog
7:15 AM 47.7 °F - 47.7 °F 100% 29.53 in 2.0 mi Calm Calm - 0.04 in Rain Rain
7:35 AM 47.8 °F - 47.8 °F 100% 29.53 in 3.0 mi Calm Calm - 0.06 in Rain Rain
7:55 AM 47.7 °F - 47.7 °F 100% 29.51 in 1.8 mi Calm Calm - 0.10 in Rain Light Rain
8:15 AM 47.8 °F - 47.8 °F 100% 29.51 in 1.0 mi Calm Calm - N/A   Light Drizzle
8:35 AM 48.2 °F - 48.2 °F 100% 29.50 in 1.0 mi Calm Calm - N/A   Light Drizzle
8:55 AM 48.2 °F - 48.2 °F 100% 29.50 in 1.8 mi Calm Calm - N/A   Overcast
9:15 AM 48.2 °F - 48.2 °F 100% 29.49 in 1.5 mi ENE 3.5 mph - N/A   Overcast
9:35 AM 48.4 °F - 48.4 °F 100% 29.48 in 1.0 mi NE 3.5 mph - N/A   Overcast
9:55 AM 48.6 °F - 48.6 °F 100% 29.47 in 0.8 mi NNE 3.5 mph - N/A Rain Rain
10:15 AM 48.7 °F - 48.7 °F 100% 29.47 in 0.8 mi Calm Calm - N/A   Heavy Drizzle
10:35 AM 49.3 °F - 49.3 °F 100% 29.45 in 1.0 mi Calm Calm - 0.01 in   Drizzle
10:55 AM 49.3 °F - 49.3 °F 100% 29.44 in 1.2 mi Calm Calm - 0.01 in   Heavy Drizzle
11:15 AM 49.5 °F - 49.5 °F 100% 29.44 in 1.8 mi Calm Calm - N/A   Drizzle
11:35 AM 49.6 °F - 49.6 °F 100% 29.43 in 1.8 mi Calm Calm - 0.01 in Rain Heavy Rain
11:55 AM 50.0 °F - 50.0 °F 100% 29.41 in 2.5 mi NNE 3.5 mph - 0.01 in   Drizzle
12:15 PM 50.2 °F - 50.2 °F 100% 29.40 in 3.0 mi Calm Calm - N/A   Drizzle
12:35 PM 50.4 °F - 50.4 °F 100% 29.39 in 4.0 mi Calm Calm - N/A   Light Drizzle
12:55 PM 51.1 °F - 51.1 °F 100% 29.37 in 7.0 mi Calm Calm - N/A   Overcast
1:15 PM 50.9 °F - 50.9 °F 100% 29.36 in 10.0 mi Calm Calm - N/A   Overcast
1:35 PM 50.9 °F - 50.9 °F 100% 29.35 in 10.0 mi Calm Calm - N/A   Overcast
1:55 PM 51.1 °F - 51.1 °F 100% 29.33 in 10.0 mi Calm Calm - N/A   Overcast
2:15 PM 51.1 °F - 51.1 °F 100% 29.31 in 10.0 mi Calm Calm - N/A   Overcast
2:35 PM 50.9 °F - 50.9 °F 100% 29.31 in 10.0 mi Calm Calm - N/A   Overcast
2:55 PM 51.1 °F - 51.1 °F 100% 29.30 in 10.0 mi Calm Calm - N/A   Overcast
3:15 PM 51.3 °F - 51.3 °F 100% 29.29 in 10.0 mi Calm Calm - N/A   Overcast
3:35 PM 51.3 °F - 51.3 °F 100% 29.28 in 7.0 mi Calm Calm - N/A   Overcast
3:55 PM 51.4 °F - 51.4 °F 100% 29.28 in 3.0 mi Calm Calm - N/A   Overcast
4:15 PM 51.3 °F - 51.3 °F 100% 29.26 in 3.0 mi Calm Calm - N/A Rain Light Rain
4:35 PM 51.3 °F - 51.3 °F 100% 29.26 in 3.0 mi NNW 3.5 mph - N/A   Drizzle
4:55 PM 51.1 °F - 51.1 °F 100% 29.27 in 3.0 mi Calm Calm - N/A   Drizzle
5:15 PM 50.9 °F - 50.9 °F 100% 29.26 in 2.0 mi NNW 5.8 mph - N/A   Heavy Drizzle
5:35 PM 50.5 °F - 50.5 °F 100% 29.26 in 2.5 mi NNW 3.5 mph - 0.01 in   Drizzle
5:55 PM 50.4 °F - 50.4 °F 100% 29.26 in 3.0 mi NW 3.5 mph - 0.01 in Rain Heavy Rain
6:15 PM 50.2 °F - 50.2 °F 100% 29.24 in 5.0 mi Calm Calm - N/A   Light Drizzle
6:35 PM 50.0 °F - 50.0 °F 100% 29.24 in 7.0 mi Calm Calm - N/A Rain Light Rain
6:55 PM 50.0 °F - 50.0 °F 100% 29.24 in 7.0 mi NNW 5.8 mph - N/A   Overcast
7:15 PM 49.5 °F - 49.5 °F 100% 29.23 in 7.0 mi North 8.1 mph - N/A   Overcast
7:35 PM 48.7 °F - 48.7 °F 100% 29.22 in 7.0 mi North 9.2 mph 16.1 mph N/A   Overcast
7:55 PM 47.8 °F - 47.8 °F 100% 29.22 in 10.0 mi North 6.9 mph - N/A   Overcast
8:15 PM 47.3 °F - 47.3 °F 100% 29.22 in 10.0 mi NNW 6.9 mph - N/A   Overcast
8:35 PM 46.8 °F - 46.8 °F 100% 29.21 in 10.0 mi NNW 6.9 mph - N/A   Overcast
8:55 PM 46.4 °F 42.4 °F 46.4 °F 100% 29.21 in 10.0 mi NNW 8.1 mph - N/A   Overcast
9:15 PM 46.0 °F 41.9 °F 46.0 °F 100% 29.21 in 10.0 mi NNW 8.1 mph - N/A   Overcast
9:35 PM 45.9 °F 42.3 °F 45.9 °F 100% 29.21 in 10.0 mi North 6.9 mph - N/A   Overcast
9:55 PM 45.7 °F 42.0 °F 45.7 °F 100% 29.20 in 10.0 mi NNW 6.9 mph - N/A   Overcast
10:15 PM 45.5 °F 40.3 °F 45.5 °F 100% 29.20 in 7.0 mi NNW 10.4 mph - N/A   Overcast
10:35 PM 45.5 °F 40.8 °F 45.5 °F 100% 29.20 in 10.0 mi North 9.2 mph - N/A   Overcast
10:55 PM 44.6 °F 40.2 °F 44.6 °F 100% 29.20 in 7.0 mi North 8.1 mph - N/A   Overcast
11:15 PM 43.9 °F 37.9 °F 43.9 °F 100% 29.20 in 10.0 mi NNW 11.5 mph 17.3 mph 0.01 in Rain Light Rain
11:35 PM 43.3 °F 36.8 °F 43.2 °F 99% 29.21 in 10.0 mi North 12.7 mph 17.3 mph 0.02 in Rain Light Rain
11:55 PM 43.0 °F 38.2 °F 42.8 °F 99% 29.20 in 10.0 mi NNW 8.1 mph - 0.02 in   Light Drizzle